GPS BIIF-7 (PRN 09)

Last updated on Sun Nov 02 2025 00:03:24 GMT+0000 (Coordinated Universal Time)

1 40105U 14045A 25304.70239159 .00000071 00000+0 00000+0 0 9990 2 40105 55.2025 97.5758 0033297 118.6534 241.6960 2.00569950 81490
UTC large
Height (km)
Speed (km/s)
/
Latitude / Longitude
Inclination (degrees)
Orbital Period (minutes)
Azimuth
Elevation
Range (km)
Doppler Factor

Next 0 passes for location: London (51.5072 / 0.1276)

Sorry there are no passes over London.